Temp
56 56 56 56 56 56 56 56 56 56 56 56 56 55 55 55 54 51 51 51 47 41 44 45 47 43 43 42 37 43 41 41 40 34 35 36 34 38 36 39 37 36 34 34 37 33 30 50 49 39 45 52 52 52
55 56 56 56 56 55 55 55 55 56 56 56 56 55 55 55 54 51 47 51 50 42 42 49 50 52 50 49 44 44 42 40 43 38 38 37 33 34 32 28 42 33 40 37 38 40 51 53 51 54 55 52 52 52
55 55 55 55 55 55 55 55 55 55 55 55 55 55 55 55 54 51 49 48 45 42 42 43 43 51 53 52 55 39 44 47 44 48 40 36 30 37 30 33 37 42 46 38 38 44 47 51 54 54 54 53 54 55
54 54 54 54 55 55 55 55 55 55 55 55 55 55 55 54 54 51 48 48 47 44 33 41 51 46 54 54 52 51 49 48 47 45 36 33 32 42 36 38 37 41 43 39 39 44 47 49 52 53 54 54 53 54
54 54 54 54 54 55 55 55 55 55 55 55 55 55 54 54 53 52 50 49 51 44 35 40 48 52 52 51 49 49 47 44 41 35 34 32 39 36 39 39 36 44 41 37 37 46 47 47 51 53 51 50 52 52
53 54 54 54 54 54 54 54 54 54 54 54 54 54 53 53 51 49 42 48 49 48 37 31 47 44 47 47 46 45 45 43 39 36 35 39 42 37 32 33 45 48 50 50 45 50 49 50 52 53 51 52 53 53
52 53 53 53 53 53 54 54 54 54 54 54 53 53 53 52 49 45 41 48 48 48 37 32 35 44 42 43 43 43 44 40 39 36 35 38 38 36 33 29 42 47 49 49 51 50 46 49 48 52 52 53 53 54
52 53 53 53 54 53 53 53 53 53 53 53 53 53 51 51 49 45 51 49 50 43 37 30 32 38 43 41 39 42 37 37 36 37 38 36 39 35 30 40 45 48 49 49 49 51 49 50 51 51 52 52 49 49
52 52 53 53 53 53 54 54 53 53 53 53 52 51 48 46 42 46 50 50 49 41 32 31 30 32 41 40 40 36 38 31 39 33 35 38 35 30 38 42 45 48 46 45 47 48 48 47 46 45 45 44 42 42
52 52 52 53 53 53 53 54 54 53 52 51 47 40 33 39 47 49 45 38 37 34 34 31 37 32 38 38 33 34 35 32 29 35 41 33 34 43 46 48 49 46 46 45 40 39 39 38 39 40 40 41 41 40
52 52 52 52 52 52 52 53 53 52 51 45 36 33 42 45 43 38 32 31 32 29 32 34 37 34 41 34 33 37 32 32 26 33 31 31 31 40 44 43 45 45 44 43 42 41 40 38 35 35 36 38 39 39
52 52 52 52 51 52 52 52 51 48 45 44 41 43 41 35 32 30 29 30 29 28 34 33 36 37 37 38 35 33 30 29 25 35 29 27 38 41 41 41 42 43 42 40 40 38 37 35 36 34 34 35 36 38
51 52 51 51 52 51 52 51 51 49 46 43 37 32 32 31 27 26 22 26 28 34 35 35 32 36 34 36 33 31 26 26 33 26 24 33 40 40 40 41 41 41 39 38 37 37 35 36 36 35 33 35 35 35
51 51 51 51 51 51 51 51 50 48 40 32 30 27 28 26 27 29 30 33 37 37 35 36 33 33 35 30 31 27 30 29 25 23 27 38 38 38 41 40 38 36 36 35 35 34 34 34 33 35 34 32 32 32
51 50 51 50 51 51 51 51 50 43 35 32 31 26 26 33 30 32 34 35 36 38 36 33 32 32 30 29 31 30 24 23 27 29 37 38 39 40 38 37 35 34 33 33 33 33 33 33 33 32 33 32 32 31
51 50 49 50 50 50 50 50 46 37 32 31 30 26 26 29 30 28 31 33 37 38 37 36 27 25 25 27 23 23 23 22 31 37 40 40 39 38 36 35 33 33 32 33 33 33 33 32 31 32 34 32 31 31
50 44 49 50 50 50 49 39 35 32 32 31 29 32 31 31 34 33 34 35 38 35 31 29 24 25 24 21 23 28 27 36 41 40 40 38 36 35 34 33 33 31 32 33 33 33 33 33 34 32 30 31 32 31
45 46 49 49 46 43 36 35 32 32 29 31 28 30 32 32 32 33 34 35 35 34 31 30 31 24 24 21 27 34 37 40 39 39 38 37 38 35 33 32 31 31 32 32 32 33 32 31 30 29 30 31 31 31
45 44 47 45 43 37 33 33 33 28 30 31 30 30 31 31 33 35 36 37 37 36 33 30 28 25 29 34 35 38 37 36 35 35 35 36 35 32 32 31 30 30 31 30 30 31 31 29 29 29 30 30 28 29
48 47 48 46 42 32 31 32 33 30 27 30 30 29 31 31 31 32 32 33 33 32 29 27 28 34 32 35 34 34 33 34 33 31 33 34 33 32 30 30 30 31 30 29 29 30 30 30 30 29 30 29 28 27
47 45 47 40 33 32 31 31 30 32 30 28 29 29 30 29 28 28 29 33 30 30 29 33 35 38 33 34 35 35 34 34 32 32 32 31 31 30 29 28 29 29 27 27 27 26 27 26 26 27 27 27 27 28
37 44 34 36 33 33 31 30 31 33 31 31 29 32 30 29 28 29 31 29 29 33 34 34 31 31 31 31 32 33 34 33 32 33 33 31 27 27 26 27 29 26 26 26 26 26 26 27 30 28 27 27 29 28
42 38 33 33 29 30 28 32 30 30 25 28 31 27 28 30 34 34 29 31 33 30 30 30 30 30 30 31 31 31 31 31 30 29 29 28 28 28 28 28 29 29 28 28 29 29 28 29 30 30 30 29 29 29
40 34 32 31 27 25 28 28 30 28 28 27 27 25 26 29 31 29 27 29 30 28 27 27 28 28 29 28 28 28 29 31 29 28 29 29 27 27 29 29 30 30 30 30 30 29 29 28 28 28 29 28 27 26
31 28 29 25 25 23 21 22 23 25 22 24 23 24 26 29 26 25 25 28 26 25 25 24 25 29 27 27 27 27 28 30 29 27 28 31 30 29 28 29 29 29 31 30 28 28 27 28 27 26 26 27 25 24
24 22 24 23 18 21 21 19 21 23 24 22 23 26 27 26 23 23 26 25 24 25 25 25 25 26 26 28 26 26 28 31 30 28 27 29 30 31 29 28 27 27 31 30 29 27 26 26 25 24 24 23 24 24
19 18 20 19 24 23 23 26 27 25 22 21 24 22 23 21 21 24 23 24 24 25 25 25 25 26 27 26 27 28 29 30 30 29 28 28 29 29 30 28 26 27 30 30 29 27 26 25 24 24 24 24 23 23
19 17 19 20 21 25 22 22 22 21 24 26 24 20 20 21 22 23 23 25 25 24 24 24 25 26 26 26 27 26 26 27 28 28 27 28 28 28 28 28 29 29 29 30 29 28 26 25 24 23 23 22 23 24
17 19 22 15 18 21 23 25 24 26 25 25 23 21 21 22 23 23 25 26 25 25 24 23 23 25 25 26 26 27 27 27 24 22 22 24 24 25 27 27 27 27 27 28 30 29 27 26 25 24 23 23 23 23
13 18 15 13 16 18 21 22 22 22 21 22 22 21 21 21 22 24 26 23 23 23 24 25 24 24 24 24 23 24 26 27 27 26 25 25 26 27 26 26 26 25 25 25 25 25 27 25 24 23 23 22 22 22
16 18 14 15 15 18 20 20 21 20 19 19 19 20 20 20 21 23 27 24 24 24 23 22 23 24 24 24 24 24 24 26 25 26 26 26 26 25 25 24 25 25 24 24 24 23 23 22 22 20 20 18 18 19
17 17 17 12 14 18 20 20 19 19 18 18 18 16 18 18 17 21 23 22 22 22 24 25 24 24 26 27 26 27 29 27 26 26 25 24 24 25 24 23 23 23 23 23 22 22 21 20 20 19 19 17 17 17
17 17 17 16 15 16 19 17 15 14 15 15 15 16 16 18 16 21 23 24 24 24 24 26 26 26 26 26 26 26 27 25 26 27 27 27 26 24 22 22 22 22 21 21 21 21 19 18 18 18 18 17 17 17
MSLP
1028.44 1028.43 1028.51 1028.59 1028.59 1028.58 1028.46 1028.55 1028.60 1028.59 1028.72 1028.66 1028.60 1028.79 1028.63 1028.62 1028.65 1028.99 1029.15 1029.43 1029.38 1029.20 1028.74 1028.76 1028.29 1028.03 1028.00 1027.97 1027.64 1027.45 1027.38 1026.93 1026.59 1026.09 1025.47 1024.85 1024.29 1023.68 1023.34 1022.68 1022.39 1022.07 1021.61 1020.86 1019.96 1018.99 1017.49 1017.18 1017.22 1017.88 1017.78 1017.11 1017.34 1016.90
1028.01 1028.01 1028.03 1028.10 1028.17 1028.28 1028.20 1028.32 1028.26 1028.30 1028.38 1028.29 1028.49 1028.62 1028.47 1028.46 1028.52 1028.82 1029.04 1029.34 1029.43 1029.43 1028.90 1028.49 1027.85 1027.88 1027.61 1027.50 1027.72 1027.66 1027.22 1027.05 1026.70 1026.34 1026.26 1025.96 1025.37 1024.96 1024.26 1023.53 1023.35 1022.65 1021.77 1021.15 1020.66 1018.65 1017.23 1017.25 1017.35 1017.51 1017.47 1016.98 1016.22 1016.25
1027.39 1027.55 1027.53 1027.56 1027.66 1027.81 1027.83 1027.84 1028.01 1028.03 1027.93 1028.00 1028.19 1028.24 1028.21 1028.14 1028.22 1028.66 1028.79 1029.24 1029.43 1029.06 1028.31 1027.69 1026.90 1026.72 1026.97 1026.83 1027.08 1027.42 1026.74 1026.96 1026.82 1026.90 1026.94 1026.68 1026.08 1025.41 1024.51 1023.46 1022.74 1022.32 1022.23 1021.45 1021.32 1019.55 1018.52 1017.90 1017.32 1017.29 1017.42 1016.92 1016.62 1016.18
1026.88 1027.01 1027.03 1027.17 1027.21 1027.21 1027.38 1027.55 1027.61 1027.56 1027.55 1027.74 1027.71 1027.72 1027.75 1027.84 1027.94 1028.30 1028.60 1028.69 1028.71 1028.55 1028.22 1026.51 1026.39 1026.26 1025.68 1025.90 1026.16 1026.29 1026.28 1027.05 1027.16 1027.29 1027.28 1026.84 1026.08 1025.20 1024.31 1023.45 1022.61 1022.01 1021.75 1020.96 1020.02 1018.79 1018.41 1017.58 1017.14 1016.74 1016.42 1016.21 1015.86 1015.54
1026.32 1026.43 1026.54 1026.62 1026.70 1026.73 1026.85 1026.98 1027.03 1027.05 1027.15 1027.23 1027.27 1027.37 1027.48 1027.49 1027.62 1027.80 1027.90 1027.79 1027.63 1027.98 1027.42 1026.60 1025.93 1024.86 1025.06 1025.18 1025.37 1025.82 1026.25 1026.54 1026.84 1027.10 1026.86 1026.31 1025.69 1025.59 1024.50 1023.62 1021.49 1019.50 1020.47 1020.41 1018.82 1018.36 1018.00 1017.26 1016.85 1016.52 1015.98 1015.59 1015.02 1014.55
1025.62 1025.71 1025.79 1025.90 1025.98 1026.06 1026.21 1026.27 1026.37 1026.54 1026.64 1026.76 1026.93 1027.01 1027.08 1027.16 1027.49 1027.73 1027.53 1027.44 1027.43 1027.73 1027.66 1026.97 1025.39 1024.64 1024.65 1024.74 1025.06 1025.36 1025.74 1026.21 1026.50 1026.38 1026.17 1025.73 1025.55 1025.82 1024.18 1021.87 1017.85 1019.36 1019.62 1019.46 1018.78 1018.16 1017.63 1016.73 1016.17 1015.71 1015.29 1014.65 1014.16 1013.59
1024.89 1025.03 1025.14 1025.23 1025.29 1025.33 1025.46 1025.62 1025.81 1025.99 1026.14 1026.30 1026.43 1026.56 1026.64 1026.84 1027.27 1027.38 1027.36 1027.17 1027.34 1027.67 1027.64 1026.96 1025.63 1024.68 1024.89 1024.91 1025.08 1025.25 1025.63 1025.85 1026.07 1026.06 1025.60 1025.28 1025.14 1025.30 1023.50 1020.93 1017.52 1018.41 1019.08 1018.63 1018.40 1017.95 1016.65 1016.09 1015.29 1014.78 1014.63 1014.05 1013.56 1012.93
1024.17 1024.33 1024.44 1024.53 1024.57 1024.66 1024.83 1025.01 1025.25 1025.46 1025.62 1025.79 1025.91 1026.01 1026.16 1026.42 1026.92 1027.08 1026.72 1027.15 1027.16 1027.54 1027.91 1027.01 1025.85 1025.15 1024.88 1024.62 1024.85 1025.24 1025.28 1025.72 1025.55 1025.07 1024.77 1024.26 1024.05 1023.92 1021.78 1018.70 1018.40 1018.14 1018.25 1018.06 1017.74 1017.53 1016.83 1015.85 1015.12 1014.21 1014.00 1013.49 1012.90 1012.17
1023.54 1023.67 1023.76 1023.81 1023.88 1024.04 1024.20 1024.37 1024.63 1024.85 1025.08 1025.25 1025.42 1025.77 1026.24 1026.47 1026.59 1026.16 1026.11 1026.43 1026.78 1027.75 1027.36 1026.72 1025.67 1024.66 1024.85 1024.62 1024.87 1025.31 1025.20 1024.92 1024.64 1024.19 1023.62 1023.43 1022.41 1021.20 1018.96 1018.41 1017.91 1017.94 1018.04 1017.87 1017.62 1017.28 1016.52 1015.77 1015.18 1014.56 1014.12 1013.72 1013.46 1012.50
1022.61 1022.71 1022.81 1022.93 1023.14 1023.38 1023.57 1023.72 1023.92 1024.21 1024.50 1024.81 1025.60 1026.32 1026.36 1026.34 1026.07 1026.17 1026.41 1026.71 1026.96 1026.83 1026.73 1025.72 1025.33 1024.75 1024.66 1024.49 1024.67 1025.01 1024.76 1024.01 1023.46 1022.72 1022.45 1021.96 1020.19 1019.15 1018.48 1018.02 1017.94 1018.39 1018.38 1018.16 1017.70 1016.71 1016.59 1016.27 1015.95 1015.14 1014.51 1014.01 1013.37 1012.40
1021.57 1021.66 1021.81 1021.99 1022.26 1022.53 1022.72 1022.95 1023.28 1023.68 1024.12 1024.79 1025.48 1025.98 1026.22 1026.22 1026.08 1026.25 1026.39 1026.34 1026.02 1025.74 1025.36 1024.64 1024.28 1024.02 1024.22 1024.06 1024.12 1024.30 1023.91 1023.78 1023.07 1022.24 1022.05 1020.74 1019.03 1018.36 1018.49 1018.56 1018.68 1018.64 1018.61 1018.59 1018.45 1018.07 1017.72 1017.28 1016.59 1015.78 1014.86 1014.15 1013.24 1012.29
1020.51 1020.58 1020.70 1020.89 1021.10 1021.37 1021.69 1022.07 1022.60 1023.35 1023.76 1024.13 1025.03 1025.82 1026.14 1025.98 1025.76 1025.80 1025.54 1025.37 1025.07 1024.38 1023.94 1023.69 1023.62 1023.79 1023.89 1024.06 1023.86 1024.16 1023.63 1023.63 1022.51 1022.39 1021.77 1019.75 1018.06 1018.42 1018.66 1018.80 1018.93 1018.74 1018.65 1018.62 1018.57 1018.23 1017.99 1017.59 1016.86 1016.17 1015.31 1014.12 1013.16 1012.23
1019.47 1019.49 1019.46 1019.43 1019.49 1020.00 1020.49 1021.09 1021.75 1022.55 1023.61 1024.59 1024.96 1025.35 1025.34 1025.31 1025.14 1024.26 1023.75 1023.63 1023.34 1022.90 1022.75 1023.16 1023.47 1023.59 1024.21 1024.18 1023.80 1023.47 1023.01 1022.53 1022.48 1021.91 1020.59 1018.52 1018.18 1018.62 1018.83 1018.92 1018.89 1019.04 1019.06 1018.73 1018.48 1018.30 1018.10 1017.45 1016.82 1016.08 1015.25 1014.42 1013.43 1012.44
1018.55 1018.50 1018.51 1018.51 1018.54 1018.97 1019.57 1020.21 1020.80 1022.03 1023.28 1023.98 1024.19 1024.18 1024.11 1023.91 1023.15 1022.02 1021.66 1021.65 1021.63 1021.71 1022.12 1022.63 1023.15 1023.38 1023.57 1023.80 1023.32 1022.85 1022.32 1022.17 1021.28 1020.34 1018.64 1017.80 1018.30 1018.77 1018.91 1019.09 1019.12 1019.12 1019.05 1018.88 1018.58 1018.36 1017.90 1017.35 1016.80 1016.17 1015.58 1014.87 1013.86 1012.94
1017.67 1017.59 1017.67 1017.83 1018.09 1018.45 1018.91 1019.49 1020.06 1021.70 1022.64 1022.70 1022.90 1022.49 1022.35 1021.45 1021.46 1021.54 1021.37 1021.48 1021.45 1021.53 1022.07 1022.70 1023.14 1023.39 1023.42 1023.27 1022.77 1022.36 1021.98 1020.83 1019.64 1018.19 1017.62 1017.98 1018.46 1018.64 1018.89 1019.08 1019.23 1019.27 1019.24 1018.99 1018.75 1018.44 1017.92 1017.41 1016.89 1016.34 1015.80 1015.35 1014.47 1013.64
1016.93 1017.10 1016.97 1017.12 1017.26 1017.48 1018.03 1018.77 1019.78 1021.39 1021.85 1022.22 1021.78 1021.46 1021.59 1021.53 1021.26 1021.58 1021.17 1021.24 1021.21 1021.40 1022.08 1022.30 1022.94 1023.38 1023.07 1022.72 1022.36 1021.52 1020.76 1019.19 1018.04 1017.64 1017.70 1018.03 1018.34 1018.66 1018.96 1019.14 1019.29 1019.37 1019.35 1019.08 1018.85 1018.51 1018.02 1017.69 1017.19 1016.69 1016.07 1015.72 1015.02 1014.38
1016.39 1016.43 1016.34 1016.40 1016.59 1016.83 1017.23 1018.94 1019.95 1019.82 1020.29 1020.46 1020.40 1020.38 1020.14 1020.41 1020.19 1020.35 1020.41 1020.58 1020.71 1021.40 1021.46 1021.95 1022.32 1022.08 1022.61 1021.93 1020.86 1019.99 1018.51 1017.23 1017.06 1017.32 1017.65 1018.06 1018.42 1018.66 1018.96 1019.18 1019.29 1019.42 1019.32 1019.18 1019.03 1018.58 1018.20 1017.95 1017.51 1016.99 1016.42 1016.08 1015.48 1014.89
1015.81 1015.93 1016.01 1016.07 1016.72 1017.24 1018.14 1018.58 1018.93 1019.27 1019.61 1019.70 1019.67 1019.64 1020.03 1020.33 1020.12 1019.77 1019.88 1020.07 1020.43 1020.68 1020.97 1020.86 1020.94 1021.17 1020.55 1019.53 1018.42 1017.71 1017.33 1017.18 1017.26 1017.40 1017.67 1018.02 1018.24 1018.59 1018.95 1019.16 1019.36 1019.45 1019.40 1019.33 1019.17 1018.68 1018.36 1018.10 1017.66 1017.32 1016.95 1016.50 1015.91 1015.25
1015.18 1015.61 1016.02 1016.37 1016.56 1017.35 1017.99 1018.33 1018.49 1018.84 1019.23 1019.25 1019.59 1020.06 1020.32 1019.81 1019.40 1019.31 1019.22 1019.50 1019.76 1019.93 1020.10 1020.43 1020.07 1019.20 1018.26 1017.43 1017.14 1016.90 1017.13 1017.19 1017.30 1017.49 1017.79 1017.96 1018.25 1018.58 1018.96 1019.28 1019.46 1019.47 1019.48 1019.42 1019.22 1018.80 1018.61 1018.49 1018.35 1018.03 1017.50 1017.02 1016.54 1016.16
1014.54 1015.18 1015.69 1016.25 1016.96 1017.63 1018.06 1018.41 1018.49 1018.53 1018.94 1019.13 1019.14 1019.36 1019.32 1019.19 1019.19 1019.04 1019.16 1019.46 1019.84 1019.99 1019.85 1019.14 1017.82 1016.89 1017.18 1016.86 1016.98 1016.95 1017.10 1017.36 1017.62 1017.62 1017.60 1017.82 1018.30 1018.70 1019.05 1019.32 1019.45 1019.58 1019.62 1019.58 1019.43 1019.08 1018.84 1018.63 1018.55 1018.32 1017.95 1017.62 1017.22 1016.82
1014.42 1014.68 1015.56 1016.23 1017.24 1017.83 1018.20 1018.20 1018.29 1018.05 1018.52 1018.85 1018.96 1019.04 1018.97 1019.20 1019.07 1018.92 1018.93 1019.14 1019.42 1018.88 1018.04 1017.05 1016.63 1016.39 1016.85 1017.02 1017.09 1017.22 1017.33 1017.48 1017.50 1017.58 1017.56 1017.79 1018.41 1018.79 1019.21 1019.55 1019.72 1019.84 1019.86 1019.74 1019.52 1019.34 1019.20 1019.15 1019.03 1018.74 1018.41 1018.15 1017.82 1017.42
1014.64 1014.77 1015.87 1016.45 1017.10 1017.43 1017.63 1018.01 1017.90 1018.08 1018.31 1018.31 1018.58 1018.46 1018.35 1018.22 1018.02 1017.94 1018.11 1018.31 1017.70 1016.69 1016.39 1016.18 1016.57 1016.77 1016.98 1017.14 1017.21 1017.33 1017.30 1017.45 1017.61 1017.72 1017.80 1018.10 1018.64 1019.12 1019.49 1019.80 1019.90 1019.98 1019.95 1019.89 1019.74 1019.58 1019.52 1019.46 1019.05 1018.87 1018.62 1018.42 1018.11 1017.71
1014.41 1015.06 1016.02 1016.66 1017.36 1017.62 1018.13 1017.91 1017.85 1017.98 1018.11 1018.02 1017.98 1017.98 1017.64 1017.21 1016.81 1017.08 1017.16 1016.62 1016.11 1016.20 1016.41 1016.66 1016.87 1017.03 1017.13 1017.30 1017.43 1017.52 1017.56 1017.60 1017.78 1018.03 1018.31 1018.60 1018.95 1019.28 1019.53 1019.74 1019.78 1019.73 1019.70 1019.80 1019.79 1019.69 1019.62 1019.50 1019.27 1018.98 1018.78 1018.54 1018.22 1017.88
1014.23 1015.33 1016.10 1016.64 1017.06 1017.91 1018.22 1017.96 1017.84 1017.80 1017.78 1017.72 1017.44 1017.14 1016.80 1016.44 1016.52 1016.51 1016.03 1015.58 1015.59 1016.20 1016.65 1016.98 1017.22 1017.31 1017.45 1017.54 1017.61 1017.79 1017.92 1017.98 1018.21 1018.51 1018.77 1018.84 1019.07 1019.37 1019.46 1019.54 1019.59 1019.59 1019.59 1019.58 1019.56 1019.58 1019.59 1019.55 1019.49 1019.37 1019.12 1018.88 1018.63 1018.33
1014.86 1016.20 1016.50 1016.98 1017.41 1017.90 1017.90 1017.74 1017.64 1017.57 1017.17 1017.07 1017.12 1016.65 1016.21 1016.27 1016.34 1016.15 1015.65 1015.54 1016.10 1016.58 1016.99 1017.35 1017.40 1017.13 1017.24 1017.50 1017.76 1017.95 1018.13 1018.05 1018.17 1018.46 1018.86 1018.83 1019.00 1019.34 1019.55 1019.66 1019.76 1019.76 1019.67 1019.54 1019.51 1019.53 1019.56 1019.58 1019.57 1019.58 1019.53 1019.24 1019.02 1018.82
1015.10 1016.24 1016.69 1016.65 1017.26 1017.29 1016.99 1017.01 1016.96 1016.73 1016.68 1016.77 1016.55 1016.38 1016.40 1016.39 1016.38 1015.81 1015.65 1016.05 1016.48 1016.87 1017.17 1017.29 1017.35 1017.45 1017.52 1017.57 1017.74 1018.00 1018.13 1018.30 1018.48 1018.70 1019.20 1019.27 1019.18 1019.12 1019.26 1019.39 1019.54 1019.76 1019.81 1019.78 1019.69 1019.67 1019.75 1019.82 1019.80 1019.79 1019.81 1019.82 1019.63 1019.35
1015.83 1016.48 1016.74 1016.82 1016.46 1016.53 1016.64 1016.41 1016.26 1016.34 1016.32 1016.27 1016.18 1016.56 1016.69 1016.62 1016.13 1015.89 1016.44 1016.89 1017.08 1017.32 1017.47 1017.56 1017.60 1017.58 1017.53 1017.77 1018.06 1018.27 1018.44 1018.62 1018.72 1018.90 1019.25 1019.41 1019.49 1019.51 1019.49 1019.55 1019.73 1019.95 1019.92 1019.90 1019.90 1019.87 1019.90 1020.02 1020.10 1020.11 1020.06 1020.02 1019.92 1019.73
1015.60 1016.23 1016.34 1016.60 1016.49 1016.16 1016.15 1016.19 1016.11 1015.96 1015.86 1015.97 1016.39 1016.62 1016.62 1016.32 1016.21 1016.56 1016.91 1017.25 1017.44 1017.63 1017.76 1017.85 1017.86 1017.90 1017.97 1018.16 1018.33 1018.55 1018.89 1019.11 1019.26 1019.45 1019.67 1019.82 1019.89 1019.91 1019.94 1019.97 1020.03 1020.04 1020.12 1020.08 1020.01 1020.02 1020.12 1020.20 1020.24 1020.25 1020.21 1020.12 1020.02 1019.85
1016.35 1016.11 1016.01 1016.58 1016.57 1016.33 1016.08 1015.86 1015.65 1015.51 1015.77 1016.00 1016.28 1016.39 1016.50 1016.56 1016.77 1016.97 1017.19 1017.41 1017.71 1017.85 1017.92 1017.95 1018.09 1018.13 1018.33 1018.55 1018.70 1018.83 1018.93 1019.11 1019.26 1019.42 1019.51 1019.59 1019.83 1019.99 1020.09 1020.13 1020.18 1020.20 1020.22 1020.16 1020.02 1020.10 1020.24 1020.29 1020.31 1020.32 1020.33 1020.26 1020.17 1020.05
1016.44 1016.25 1016.24 1016.44 1016.52 1016.24 1015.96 1016.05 1016.18 1016.42 1016.60 1016.74 1016.78 1016.88 1016.96 1016.99 1017.09 1017.22 1017.32 1017.61 1017.74 1017.75 1017.80 1017.89 1018.10 1018.26 1018.46 1018.58 1018.82 1019.07 1019.13 1019.13 1019.19 1019.28 1019.26 1019.28 1019.38 1019.65 1019.94 1020.11 1020.23 1020.35 1020.36 1020.36 1020.35 1020.40 1020.39 1020.50 1020.52 1020.55 1020.47 1020.39 1020.24 1020.08
1016.21 1016.20 1016.46 1016.48 1016.56 1016.55 1016.56 1016.75 1016.92 1017.07 1017.22 1017.33 1017.34 1017.36 1017.31 1017.32 1017.14 1017.03 1017.00 1017.23 1017.41 1017.62 1017.80 1017.97 1018.15 1018.24 1018.30 1018.36 1018.52 1018.74 1018.91 1019.02 1019.12 1019.19 1019.24 1019.33 1019.50 1019.71 1019.93 1020.13 1020.27 1020.37 1020.42 1020.43 1020.44 1020.43 1020.47 1020.54 1020.57 1020.57 1020.53 1020.47 1020.37 1020.21
1016.19 1016.13 1016.29 1016.71 1016.93 1017.01 1017.06 1017.07 1017.29 1017.47 1017.59 1017.63 1017.57 1017.67 1017.63 1017.59 1017.36 1016.89 1016.75 1017.03 1017.25 1017.39 1017.37 1017.51 1017.72 1017.90 1018.10 1018.22 1018.43 1018.56 1018.55 1018.70 1018.88 1019.04 1019.21 1019.40 1019.62 1019.82 1019.99 1020.18 1020.33 1020.41 1020.45 1020.50 1020.54 1020.55 1020.58 1020.58 1020.57 1020.59 1020.57 1020.53 1020.44 1020.30
1016.34 1016.38 1016.52 1016.67 1017.01 1017.08 1017.19 1017.41 1017.70 1017.78 1017.82 1017.65 1017.53 1017.55 1017.48 1017.50 1017.19 1016.92 1016.94 1016.94 1016.93 1016.90 1017.06 1017.24 1017.47 1017.72 1017.92 1018.13 1018.32 1018.48 1018.65 1018.78 1018.88 1018.99 1019.10 1019.25 1019.49 1019.78 1020.03 1020.21 1020.32 1020.40 1020.47 1020.47 1020.50 1020.53 1020.57 1020.59 1020.57 1020.55 1020.49 1020.41 1020.29 1020.14
Wind_Speed
10 10 10 9 9 9 7 7 7 7 7 6 5 6 6 7 3 5 0 5 3 3 5 7 9 9 5 5 6 3 6 4 3 5 4 4 5 4 5 5 7 7 6 5 7 11 15 10 9 12 17 21 18 21
12 12 11 10 9 9 9 10 9 8 8 6 7 7 6 6 3 8 2 2 3 3 4 5 11 15 16 15 9 5 6 3 2 3 2 3 4 2 3 5 5 9 9 9 10 11 24 28 25 22 21 22 25 22
12 13 13 11 11 11 10 8 9 9 9 7 8 8 7 6 4 6 2 3 2 3 5 8 9 11 14 18 14 9 9 9 7 6 6 4 8 4 9 11 16 17 15 15 16 20 25 25 26 26 25 23 21 21
12 13 13 12 12 12 12 12 10 11 10 10 10 9 8 6 5 5 3 4 3 1 3 7 2 7 7 13 15 18 18 5 1 2 4 4 6 5 9 13 15 14 15 18 21 25 24 25 23 23 23 25 26 25
14 15 15 14 14 14 14 13 13 13 12 11 9 7 8 6 3 1 3 6 7 5 3 6 11 16 13 11 15 15 14 14 7 4 6 6 6 5 8 13 17 19 20 15 17 24 23 25 27 29 27 27 27 27
17 17 17 17 16 16 16 15 14 13 12 10 9 8 7 6 5 1 3 2 6 4 3 3 5 3 3 4 12 11 10 9 4 3 4 4 3 4 6 11 32 18 16 16 19 24 25 27 27 29 28 27 27 26
16 15 14 14 15 15 15 14 12 12 11 11 10 9 8 7 4 3 2 2 6 5 2 3 5 1 1 2 2 3 6 3 4 3 5 7 7 6 6 18 30 23 21 22 20 21 26 24 22 25 24 26 26 26
14 14 14 13 13 13 13 13 13 12 12 12 12 11 11 7 4 4 5 8 6 2 1 3 5 4 4 2 2 2 4 3 4 3 2 4 4 5 10 21 20 19 16 15 16 16 19 21 22 25 23 23 25 24
16 16 16 15 14 14 14 13 13 13 12 12 10 5 3 2 4 3 6 14 2 2 3 3 4 2 3 2 2 3 3 5 4 4 5 5 6 10 13 16 16 16 15 15 17 18 20 22 24 25 25 25 21 20
19 19 19 18 18 17 17 16 14 12 11 10 4 2 2 3 2 10 2 3 4 4 5 5 3 4 3 3 3 2 3 3 3 6 4 5 10 17 17 18 16 10 11 14 19 21 21 21 21 24 24 21 19 20
20 20 20 20 19 19 19 18 15 11 6 3 3 4 1 3 2 1 3 4 3 4 4 4 9 9 4 7 4 4 2 1 3 2 5 4 6 5 4 3 6 9 12 13 14 15 17 19 20 21 23 23 21 21
20 21 21 22 22 22 20 18 15 6 4 6 6 4 2 2 2 5 5 3 6 5 5 4 4 5 2 1 4 3 3 3 5 3 4 5 4 5 2 6 9 11 13 14 13 15 17 18 18 18 19 20 20 21
20 20 20 21 23 24 21 18 16 11 15 3 2 4 4 4 8 8 9 5 5 5 6 5 4 4 2 3 4 4 6 5 3 4 5 6 4 1 5 7 10 11 11 12 14 14 15 17 17 17 17 18 19 18
19 18 16 14 13 16 17 17 17 14 4 4 6 7 7 7 7 7 6 7 5 3 6 6 4 3 3 4 3 4 1 3 4 5 7 3 4 4 6 8 8 10 10 11 12 13 14 15 16 16 16 17 16 15
15 12 12 11 12 14 15 16 18 5 4 4 5 7 10 5 2 2 2 3 4 5 6 4 3 3 3 4 3 3 4 6 6 5 2 3 1 5 7 7 7 8 8 8 10 11 12 14 14 15 15 16 15 16
13 11 9 14 16 17 18 17 7 3 4 4 5 3 2 4 4 3 5 5 5 6 4 2 4 3 5 4 5 8 4 7 4 4 2 2 4 6 7 5 5 5 5 6 7 8 10 12 13 13 13 15 15 16
12 4 7 10 10 11 14 6 4 6 7 6 4 3 3 1 5 5 6 5 7 7 4 3 6 8 4 4 6 6 7 8 5 4 3 3 4 7 5 4 3 2 4 5 7 8 9 10 10 12 15 15 13 13
4 3 8 8 11 7 2 2 3 4 4 3 4 4 3 2 2 2 5 5 6 5 5 6 3 6 6 6 6 6 6 4 3 4 3 4 6 4 4 4 2 2 4 4 5 6 8 9 9 8 11 13 11 13
6 7 17 14 6 4 2 1 2 4 2 2 3 2 3 3 4 2 2 5 2 2 5 3 6 6 9 8 10 9 4 4 3 2 3 6 4 5 4 3 2 2 3 4 4 4 5 6 6 7 7 8 8 9
11 16 18 19 10 1 2 2 2 2 4 2 2 3 2 2 1 1 4 5 4 3 5 6 8 10 4 3 3 2 2 2 3 5 5 3 4 5 4 2 0 2 1 3 3 5 5 5 6 6 7 8 8 9
7 6 20 8 2 3 3 3 1 1 3 2 1 3 2 2 3 4 4 6 6 5 6 8 9 8 1 1 2 2 3 4 5 4 3 3 4 3 3 3 2 2 1 2 3 3 5 4 5 5 5 6 6 7
3 13 3 3 2 2 2 1 2 2 2 0 2 3 3 2 4 5 4 5 5 7 6 5 3 3 3 3 2 3 3 2 2 1 4 8 4 3 3 1 1 1 2 2 2 3 3 4 4 4 5 5 6 6
8 4 3 2 3 2 0 1 3 4 4 3 3 3 4 3 2 5 4 5 3 1 2 1 2 1 2 2 2 1 1 3 3 4 5 5 5 4 4 3 2 1 1 2 2 3 3 5 6 5 5 6 6 6
6 3 4 5 4 4 2 4 1 3 3 3 3 3 4 4 3 4 5 3 2 3 3 3 1 2 2 3 2 1 2 4 5 5 4 5 5 4 3 3 3 2 1 1 1 2 3 3 5 5 6 6 6 6
6 4 4 4 1 4 4 4 4 4 4 5 4 4 3 3 3 4 4 1 3 3 3 2 3 4 4 3 3 3 3 6 6 6 4 4 5 5 4 3 3 2 1 1 2 2 3 3 4 4 5 6 7 8
4 4 9 8 3 6 6 6 6 7 4 5 6 1 2 2 3 6 2 2 2 3 3 3 3 4 3 3 5 4 5 4 5 4 2 1 3 3 3 3 3 2 3 2 1 2 3 3 3 4 4 6 8 7
6 6 3 1 2 3 2 1 2 2 5 6 3 4 3 4 6 2 1 1 1 1 1 1 3 3 3 4 2 3 4 3 2 3 4 3 2 2 0 2 2 2 1 2 2 2 3 3 3 3 3 3 4 5
3 5 8 6 3 2 4 4 5 6 4 3 4 4 5 6 3 1 1 1 1 2 1 1 1 2 3 4 5 5 4 5 6 6 4 3 3 2 2 2 1 2 1 1 2 3 2 1 1 1 2 2 3 4
2 3 3 4 2 3 5 6 4 2 2 4 4 4 3 1 0 2 2 2 2 3 3 4 3 4 4 4 3 3 5 6 7 5 5 3 3 3 2 2 2 1 0 1 1 3 3 2 2 1 1 1 2 3
3 2 4 2 6 6 2 2 1 2 1 1 1 1 1 1 1 1 2 3 3 3 3 3 4 4 5 6 5 5 3 3 2 2 3 3 2 3 4 3 2 1 1 1 1 1 3 2 1 1 1 1 2 2
2 2 3 1 3 1 1 2 2 2 1 0 0 1 1 2 2 3 5 4 3 3 4 5 5 4 6 6 6 5 4 4 4 4 3 2 3 4 4 3 2 2 2 3 2 2 2 2 1 1 1 3 4 4
2 3 4 3 1 1 2 1 2 1 1 2 2 1 1 1 3 2 2 4 5 5 8 6 6 5 5 3 3 2 1 2 4 3 5 3 3 3 3 3 3 3 3 3 2 2 2 1 1 1 2 3 4 4
2 2 2 3 3 3 2 2 1 1 1 2 2 2 2 2 4 0 0 2 3 4 5 5 4 3 4 5 4 2 3 3 4 6 6 6 6 5 3 2 2 3 3 2 2 2 2 2 2 2 3 4 5 5
Wind_Direction
250 254 260 267 275 274 280 283 280 282 285 298 315 314 325 330 30 178 100 198 212 226 253 232 240 242 244 244 269 350 299 181 250 246 262 257 260 249 273 277 292 283 268 250 254 244 261 59 358 8 313 307 308 309
255 257 263 266 267 274 275 284 265 276 290 305 304 292 304 312 18 170 230 177 212 228 254 245 259 261 255 258 270 232 259 255 301 280 249 306 277 319 8 271 287 260 244 283 274 289 315 313 304 305 302 305 311 307
263 263 257 259 264 255 258 271 277 278 284 279 276 277 281 295 304 171 199 152 189 263 251 247 253 256 233 236 229 241 249 244 239 268 288 287 261 266 265 269 275 267 270 265 277 265 269 281 295 298 296 296 295 294
261 264 264 261 261 261 260 260 263 272 279 283 285 279 276 267 283 155 203 192 245 200 250 269 238 237 230 226 222 221 240 229 280 255 251 244 258 243 270 284 276 266 276 266 272 274 279 277 282 292 296 298 296 293
260 264 264 263 261 260 261 263 267 267 271 274 279 286 280 261 267 232 222 208 212 208 250 281 298 260 241 229 220 222 230 236 238 219 226 244 257 277 255 265 265 252 260 259 271 281 289 292 291 295 295 292 290 293
256 258 258 258 256 254 256 259 263 264 271 273 269 272 265 260 137 217 282 183 213 213 266 262 290 255 256 250 234 230 222 224 215 212 230 228 173 219 259 261 263 281 273 276 280 285 285 284 287 288 287 286 290 291
258 254 256 262 263 259 256 260 260 257 258 261 263 257 252 233 161 202 227 52 158 154 268 253 262 131 47 106 123 190 199 196 213 216 220 248 223 210 257 259 275 288 294 293 286 286 287 290 293 300 298 295 293 290
253 256 259 264 266 262 260 258 255 252 251 254 257 254 255 243 163 243 218 154 151 87 272 259 268 278 178 201 171 177 170 181 214 234 212 233 239 213 253 257 273 288 299 300 304 304 294 293 294 294 297 298 301 295
255 255 257 259 263 266 267 262 255 252 246 247 253 293 96 161 198 206 201 183 135 154 255 217 232 270 161 173 139 179 226 207 183 222 211 212 224 225 245 272 285 302 326 321 315 307 302 302 309 307 310 310 305 298
256 254 255 256 258 259 258 257 256 248 247 243 100 109 244 218 166 135 66 156 198 201 212 236 174 252 203 177 201 229 201 234 228 212 184 229 250 257 265 274 292 329 320 323 315 317 321 313 313 310 309 307 301 295
259 255 254 254 252 252 251 251 250 246 242 130 155 197 210 262 161 131 194 221 185 221 211 228 215 232 197 236 219 222 258 235 249 180 227 244 259 265 98 21 339 327 322 319 315 314 314 314 314 314 313 311 306 303
262 259 256 253 248 245 243 238 230 211 176 169 141 122 161 211 188 183 202 182 209 224 196 207 204 208 191 223 221 182 234 188 245 140 242 249 259 156 18 342 327 328 329 323 325 322 324 320 317 318 316 315 315 312
264 267 266 262 245 235 234 225 216 175 117 105 140 164 179 161 214 213 186 195 197 199 180 177 176 177 161 217 216 219 224 218 124 206 234 245 155 150 340 325 331 329 322 328 330 332 328 328 332 335 330 332 326 323
265 269 265 257 235 221 220 214 211 156 114 173 177 194 204 184 229 206 181 171 200 172 161 161 136 181 171 189 243 257 220 199 226 228 235 221 149 308 321 324 321 326 332 332 335 335 333 343 343 346 354 344 339 341
269 256 244 236 231 224 217 210 211 122 163 185 189 206 209 213 170 245 167 163 169 139 142 130 129 180 193 242 220 261 229 230 228 239 242 146 242 314 316 323 321 325 332 335 336 334 343 350 352 352 1 352 354 353
257 256 246 239 234 228 217 213 186 115 150 195 209 189 125 192 174 206 189 205 164 138 129 114 123 175 217 218 195 214 220 226 235 232 193 192 302 314 307 303 311 318 324 329 336 341 359 357 356 356 7 5 1 6
236 224 218 226 240 243 166 110 148 182 170 195 195 175 158 258 209 193 173 196 148 159 182 145 185 209 116 215 216 206 225 256 256 213 207 232 294 302 281 266 270 300 321 336 339 357 5 356 357 6 4 358 358 7
213 220 211 244 137 94 54 114 156 144 178 155 169 162 182 237 203 177 186 159 150 189 158 204 134 190 214 214 223 228 244 252 232 240 241 257 290 250 219 226 198 294 327 333 339 353 10 4 4 4 358 355 358 1
182 170 140 122 52 103 129 122 128 142 136 140 110 148 200 230 238 265 170 167 164 140 140 178 228 216 224 232 252 262 247 223 231 237 255 266 213 184 181 171 213 306 325 340 346 12 12 13 9 355 355 360 4 3
187 175 160 141 108 98 110 82 344 120 174 167 133 168 214 223 313 232 189 173 165 173 209 219 225 236 223 220 215 229 188 199 237 273 281 237 175 166 168 172 69 347 356 1 13 12 16 17 13 7 7 11 8 7
162 197 154 126 101 114 146 153 159 56 115 195 185 187 206 194 220 212 213 171 193 209 230 227 244 253 142 111 177 205 236 233 243 243 265 210 160 146 117 82 82 57 43 17 17 17 25 10 351 354 8 10 9 2
122 94 91 47 76 33 83 194 127 133 137 137 164 201 242 220 208 204 157 192 221 221 216 227 204 187 197 209 216 233 239 205 158 101 86 123 128 123 116 124 161 107 57 24 9 10 360 344 353 14 12 10 9 12
107 78 76 104 100 138 103 265 165 177 184 205 169 211 221 217 210 141 222 217 237 167 146 141 144 159 227 233 201 140 111 156 134 119 113 109 113 128 138 144 159 151 94 47 18 13 12 6 11 18 16 15 14 18
115 87 148 169 133 163 142 192 194 190 202 202 213 224 222 213 153 227 246 228 165 135 152 138 144 150 124 114 130 134 127 130 120 114 134 143 141 143 145 136 133 122 124 165 88 65 49 40 28 18 18 21 22 19
116 172 156 161 179 129 173 175 194 197 232 201 203 247 215 179 217 237 239 197 171 176 168 178 199 199 176 167 160 158 167 163 158 156 171 180 146 144 146 126 99 62 19 130 96 91 78 64 53 43 24 24 24 18
164 176 180 181 176 175 179 169 198 200 184 193 224 201 189 209 235 244 222 170 188 184 189 195 185 179 197 191 169 179 181 175 160 151 129 187 198 191 172 176 176 106 32 23 58 84 79 65 55 45 37 22 16 17
167 200 200 267 143 131 150 164 133 171 184 204 190 175 183 224 237 224 114 163 220 186 181 178 193 204 207 165 132 107 126 137 158 136 131 124 96 63 106 171 147 73 42 74 79 75 77 63 46 34 23 21 17 15
156 168 175 178 176 197 153 175 182 201 201 169 137 184 208 211 252 145 194 145 178 137 134 138 207 200 149 144 141 138 122 126 116 109 103 89 74 78 92 105 105 81 108 167 101 90 88 96 101 54 29 14 9 13
172 189 129 130 132 197 208 197 212 183 113 171 181 203 227 217 180 192 156 169 159 167 159 138 109 113 111 121 130 146 147 158 155 162 189 196 191 197 180 170 163 143 133 118 124 147 162 162 155 135 69 13 -0 356
217 192 100 135 164 205 205 181 161 105 48 40 59 90 253 247 234 225 177 161 179 190 178 150 141 154 157 156 149 156 182 199 229 233 236 234 224 145 166 176 166 140 137 150 156 132 122 85 94 67 40 20 358 356
147 125 88 124 207 214 153 115 90 91 83 140 337 232 256 305 268 221 208 189 182 160 158 163 175 187 177 172 177 179 207 210 220 227 217 170 152 161 167 171 171 175 178 173 168 170 171 159 151 103 34 7 352 353
152 161 140 146 189 138 160 145 151 187 202 212 221 200 214 256 262 201 198 165 174 188 204 187 187 199 206 204 197 208 224 170 176 177 163 159 170 169 161 163 175 184 181 176 173 167 167 182 205 315 327 324 322 321
100 87 88 117 139 175 168 117 150 278 248 235 234 196 209 227 250 10 92 215 207 196 194 195 193 184 179 175 177 176 161 156 172 178 177 175 173 168 157 166 174 172 171 176 181 192 197 217 248 273 289 303 310 314